FBU80G LFPO-KSFO

Flight info

Callsign FBU80G
Flight time N/A
Altitude 34000
Route LGL UN502 JSY DCT LIZAD DCT MOPAT/N0487F360 DCT DEVOL DCT SUNOT/M085F370 DCT 58N020W 58N030W 58N040W 57N050W DCT HOIST/N0499F380 DCT YWK DCT YMO DCT YQT DCT ABR/N0492F400 DCT CZI DCT MLD J32 BAM DCT SWR/N0398F160 T331 TIPRE RISTI1
Aircraft A359/H-SDE2E3GHIJ1J3J4J5LM1ORWXY/LB1D1

Departure

Time N/A
Airport Paris-Orly Airport (LFPO)

Arrival

Time 2026-05-05 13:49
Airport San Francisco International Airport (KSFO)
Time Latitude Longitude Altitude Speed Heading
2026-05-05 12:35 42.36744 -111.94617 35790 ft 482 kts 249°
2026-05-05 12:35 42.35383 -111.98757 35784 ft 482 kts 249°
2026-05-05 12:35 42.32653 -112.07034 35776 ft 482 kts 249°
2026-05-05 12:36 42.29919 -112.15303 35776 ft 483 kts 249°
2026-05-05 12:36 42.27160 -112.23624 35773 ft 487 kts 249°
2026-05-05 12:37 42.24404 -112.31909 35770 ft 488 kts 249°
2026-05-05 12:37 42.21618 -112.40254 35756 ft 488 kts 249°
2026-05-05 12:38 42.18824 -112.48593 35741 ft 488 kts 248°
2026-05-05 12:38 42.16001 -112.56961 35746 ft 492 kts 248°
2026-05-05 12:39 42.13158 -112.65355 35738 ft 492 kts 248°
2026-05-05 12:39 42.10309 -112.73741 35730 ft 492 kts 248°
2026-05-05 12:40 42.07457 -112.82112 35724 ft 493 kts 248°
2026-05-05 12:40 42.04584 -112.90526 35730 ft 496 kts 248°
2026-05-05 12:41 42.01698 -112.98949 35730 ft 496 kts 248°
2026-05-05 12:41 41.98804 -113.07366 35727 ft 496 kts 248°
2026-05-05 12:42 41.95903 -113.15783 35729 ft 499 kts 248°
2026-05-05 12:42 41.92992 -113.24204 35729 ft 501 kts 248°
2026-05-05 12:43 41.90027 -113.32749 35726 ft 502 kts 248°
2026-05-05 12:43 41.87075 -113.41232 35729 ft 502 kts 248°
2026-05-05 12:44 41.84113 -113.49721 35727 ft 505 kts 248°
2026-05-05 12:44 41.81145 -113.58200 35724 ft 506 kts 248°
2026-05-05 12:45 41.78146 -113.66739 35722 ft 506 kts 248°
2026-05-05 12:45 41.75141 -113.75270 35718 ft 506 kts 248°
2026-05-05 12:46 41.72613 -113.82431 35731 ft 509 kts 248°
2026-05-05 12:46 41.69573 -113.91013 35729 ft 511 kts 247°
2026-05-05 12:47 41.66523 -113.99594 35733 ft 511 kts 247°
2026-05-05 12:47 41.63487 -114.08114 35725 ft 511 kts 247°
2026-05-05 12:48 41.60416 -114.16709 35746 ft 514 kts 247°
2026-05-05 12:48 41.57327 -114.25325 35741 ft 514 kts 247°
2026-05-05 12:49 41.54230 -114.33933 35747 ft 514 kts 247°
2026-05-05 12:49 41.51126 -114.42538 35752 ft 516 kts 247°
2026-05-05 12:50 41.47998 -114.51182 35752 ft 518 kts 247°
2026-05-05 12:50 41.44857 -114.59838 35763 ft 519 kts 247°
2026-05-05 12:51 41.41709 -114.68486 35771 ft 519 kts 247°
2026-05-05 12:51 41.38553 -114.77127 35788 ft 519 kts 247°
2026-05-05 12:52 41.35391 -114.85761 35788 ft 519 kts 246°
2026-05-05 12:52 41.32223 -114.94385 35787 ft 519 kts 246°
2026-05-05 12:53 41.29048 -115.03007 35797 ft 519 kts 246°
2026-05-05 12:53 41.25852 -115.11655 35799 ft 522 kts 246°
2026-05-05 12:54 41.21030 -115.24652 35807 ft 523 kts 246°
2026-05-05 12:55 41.17808 -115.33307 35819 ft 523 kts 246°
2026-05-05 12:55 41.14573 -115.41972 35821 ft 525 kts 246°
2026-05-05 12:56 41.11322 -115.50652 35820 ft 526 kts 246°
2026-05-05 12:56 41.08061 -115.59329 35851 ft 526 kts 246°
2026-05-05 12:57 41.04794 -115.68001 35866 ft 527 kts 246°
2026-05-05 12:57 41.01508 -115.76694 35883 ft 528 kts 246°
2026-05-05 12:58 40.98233 -115.85335 35892 ft 529 kts 246°
2026-05-05 12:58 40.94929 -115.94025 35895 ft 529 kts 246°
2026-05-05 12:59 40.91613 -116.02721 35886 ft 530 kts 246°
2026-05-05 12:59 40.88279 -116.11437 35873 ft 531 kts 246°
2026-05-05 13:00 40.83265 -116.24498 35851 ft 532 kts 245°
2026-05-05 13:01 40.76537 -116.41935 35851 ft 534 kts 245°
2026-05-05 13:01 40.73157 -116.50654 35866 ft 534 kts 245°
2026-05-05 13:02 40.69770 -116.59367 35889 ft 535 kts 245°
2026-05-05 13:02 40.66364 -116.68104 35914 ft 537 kts 245°
2026-05-05 13:03 40.62945 -116.76847 35933 ft 537 kts 245°
2026-05-05 13:03 40.59519 -116.85583 35934 ft 537 kts 245°
2026-05-05 13:04 40.56084 -116.94319 35934 ft 539 kts 245°
2026-05-05 13:04 40.52662 -117.03021 35920 ft 540 kts 245°
2026-05-05 13:05 40.49210 -117.11778 35898 ft 540 kts 245°
2026-05-05 13:05 40.45747 -117.20533 35857 ft 540 kts 245°
2026-05-05 13:06 40.42272 -117.29297 35856 ft 542 kts 245°
2026-05-05 13:06 40.38784 -117.38064 35862 ft 542 kts 245°
2026-05-05 13:07 40.35290 -117.46820 35865 ft 542 kts 245°
2026-05-05 13:07 40.31787 -117.55575 35862 ft 543 kts 245°
2026-05-05 13:08 40.28271 -117.64335 35863 ft 543 kts 245°
2026-05-05 13:08 40.24749 -117.73085 35867 ft 543 kts 245°
2026-05-05 13:09 40.21220 -117.81825 35868 ft 543 kts 245°
2026-05-05 13:09 40.17684 -117.90563 35865 ft 543 kts 244°
2026-05-05 13:10 40.14139 -117.99293 35868 ft 544 kts 244°
2026-05-05 13:10 40.10586 -118.08017 35859 ft 544 kts 244°
2026-05-05 13:11 40.07025 -118.16740 35877 ft 545 kts 244°
2026-05-05 13:11 40.03452 -118.25464 35896 ft 545 kts 244°
2026-05-05 13:12 39.99871 -118.34182 35916 ft 545 kts 244°
2026-05-05 13:12 39.96279 -118.42900 35920 ft 546 kts 244°
2026-05-05 13:13 39.92674 -118.51628 35921 ft 547 kts 244°
2026-05-05 13:13 39.89059 -118.60353 35913 ft 547 kts 244°
2026-05-05 13:14 39.85435 -118.69075 35897 ft 548 kts 244°
2026-05-05 13:14 39.81805 -118.77790 35883 ft 548 kts 244°
2026-05-05 13:15 39.78187 -118.86448 35865 ft 548 kts 244°
2026-05-05 13:15 39.74539 -118.95152 35864 ft 548 kts 244°
2026-05-05 13:16 39.70880 -119.03860 35865 ft 549 kts 244°
2026-05-05 13:16 39.67212 -119.12563 35865 ft 550 kts 244°
2026-05-05 13:17 39.63537 -119.21259 35866 ft 550 kts 243°
2026-05-05 13:17 39.59855 -119.29948 35872 ft 550 kts 243°
2026-05-05 13:18 39.56161 -119.38640 35893 ft 551 kts 243°
2026-05-05 13:18 39.52457 -119.47329 35914 ft 551 kts 243°
2026-05-05 13:19 39.48747 -119.56005 35925 ft 551 kts 243°
2026-05-05 13:19 39.45023 -119.64679 35951 ft 551 kts 243°
2026-05-05 13:20 39.41291 -119.73347 35954 ft 552 kts 243°
2026-05-05 13:20 39.37556 -119.82007 35944 ft 552 kts 243°
2026-05-05 13:21 39.33814 -119.90667 35950 ft 552 kts 243°
2026-05-05 13:21 39.30067 -119.99313 35946 ft 552 kts 243°
2026-05-05 13:22 39.26311 -120.07954 36001 ft 552 kts 243°
2026-05-05 13:22 39.22545 -120.16591 35996 ft 552 kts 242°
2026-05-05 13:23 39.18390 -120.24930 35991 ft 555 kts 230°
2026-05-05 13:23 39.15665 -120.28442 35984 ft 554 kts 219°
2026-05-05 13:23 39.12565 -120.31378 35989 ft 554 kts 213°
2026-05-05 13:24 39.06078 -120.36717 35987 ft 553 kts 209°
2026-05-05 13:24 38.99496 -120.41850 35998 ft 553 kts 209°
2026-05-05 13:25 38.92931 -120.46998 36006 ft 553 kts 209°
2026-05-05 13:25 38.86426 -120.52146 36015 ft 553 kts 210°
2026-05-05 13:26 38.79885 -120.57340 36026 ft 553 kts 210°
2026-05-05 13:26 38.73342 -120.62517 36028 ft 553 kts 210°
2026-05-05 13:27 38.66808 -120.67659 35754 ft 545 kts 209°
2026-05-05 13:27 38.63617 -120.70161 35580 ft 533 kts 209°
2026-05-05 13:27 38.60438 -120.72644 34650 ft 540 kts 209°
2026-05-05 13:28 38.57195 -120.75171 33479 ft 551 kts 209°
2026-05-05 13:28 38.53901 -120.77736 32369 ft 558 kts 210°
2026-05-05 13:28 38.50576 -120.80325 31304 ft 562 kts 210°
2026-05-05 13:28 38.47227 -120.82932 30324 ft 563 kts 211°
2026-05-05 13:29 38.43899 -120.85521 29496 ft 558 kts 211°
2026-05-05 13:29 38.40594 -120.88089 28700 ft 553 kts 211°
2026-05-05 13:29 38.37321 -120.90628 27946 ft 548 kts 211°
2026-05-05 13:29 38.34078 -120.93140 27179 ft 544 kts 211°
2026-05-05 13:30 38.30863 -120.95629 26577 ft 536 kts 211°
2026-05-05 13:30 38.27684 -120.98086 25911 ft 531 kts 211°
2026-05-05 13:30 38.24534 -121.00518 25164 ft 528 kts 211°
2026-05-05 13:30 38.21405 -121.02893 24593 ft 521 kts 208°
2026-05-05 13:31 38.18123 -121.04795 23944 ft 516 kts 200°
2026-05-05 13:31 38.14792 -121.06418 23264 ft 510 kts 199°
2026-05-05 13:31 38.11490 -121.07989 22581 ft 504 kts 199°
2026-05-05 13:31 38.08232 -121.09540 21899 ft 498 kts 199°
2026-05-05 13:32 38.05011 -121.11078 21209 ft 492 kts 199°
2026-05-05 13:32 38.01833 -121.12599 20558 ft 486 kts 199°
2026-05-05 13:32 37.99743 -121.13599 20113 ft 483 kts 199°
2026-05-05 13:32 37.96621 -121.15094 19456 ft 478 kts 199°
2026-05-05 13:33 37.93528 -121.16574 18808 ft 472 kts 199°
2026-05-05 13:33 37.90473 -121.18035 18148 ft 467 kts 199°
2026-05-05 13:33 37.87452 -121.19480 17449 ft 461 kts 199°
2026-05-05 13:33 37.84468 -121.20905 16770 ft 455 kts 199°
2026-05-05 13:34 37.81526 -121.22309 16101 ft 450 kts 199°
2026-05-05 13:34 37.78619 -121.23695 15467 ft 444 kts 199°
2026-05-05 13:34 37.75746 -121.25063 14851 ft 437 kts 199°
2026-05-05 13:34 37.72983 -121.26604 14167 ft 433 kts 210°
2026-05-05 13:35 37.70685 -121.29009 13488 ft 428 kts 229°
2026-05-05 13:35 37.69126 -121.32132 12750 ft 411 kts 248°
2026-05-05 13:35 37.68236 -121.35471 11849 ft 392 kts 256°
2026-05-05 13:35 37.67515 -121.38689 11318 ft 374 kts 256°
2026-05-05 13:36 37.66784 -121.41821 10842 ft 370 kts 255°
2026-05-05 13:36 37.65880 -121.44788 10682 ft 356 kts 243°
2026-05-05 13:36 37.64539 -121.47333 10558 ft 342 kts 234°
2026-05-05 13:36 37.63116 -121.49651 10427 ft 327 kts 233°
2026-05-05 13:37 37.61731 -121.51853 10299 ft 314 kts 233°
2026-05-05 13:37 37.60400 -121.53965 10163 ft 303 kts 233°
2026-05-05 13:37 37.59111 -121.56015 10037 ft 294 kts 233°
2026-05-05 13:37 37.57820 -121.58070 9848 ft 306 kts 234°
2026-05-05 13:38 37.56496 -121.60184 9450 ft 307 kts 233°
2026-05-05 13:38 37.55298 -121.62374 9131 ft 300 kts 244°
2026-05-05 13:38 37.54497 -121.64779 8919 ft 296 kts 253°
2026-05-05 13:38 37.53887 -121.67235 8690 ft 293 kts 256°
2026-05-05 13:39 37.53323 -121.69655 8513 ft 291 kts 256°
2026-05-05 13:39 37.52753 -121.72102 8307 ft 290 kts 256°
2026-05-05 13:39 37.52182 -121.74527 8127 ft 288 kts 256°
2026-05-05 13:39 37.51611 -121.76942 7925 ft 287 kts 255°
2026-05-05 13:40 37.51035 -121.79335 7736 ft 285 kts 255°
2026-05-05 13:40 37.50460 -121.81721 7564 ft 284 kts 256°
2026-05-05 13:40 37.49893 -121.84100 7368 ft 283 kts 256°
2026-05-05 13:40 37.49327 -121.86462 7180 ft 281 kts 255°
2026-05-05 13:41 37.48734 -121.88802 7034 ft 280 kts 254°
2026-05-05 13:41 37.48124 -121.91119 6815 ft 278 kts 253°
2026-05-05 13:41 37.47514 -121.93417 6619 ft 276 kts 253°
2026-05-05 13:41 37.46911 -121.95700 6428 ft 274 kts 253°
2026-05-05 13:42 37.46507 -121.97762 6250 ft 271 kts 263°
2026-05-05 13:42 37.46508 -122.00170 6087 ft 268 kts 279°
2026-05-05 13:42 37.47027 -122.02393 5697 ft 264 kts 295°
2026-05-05 13:42 37.47856 -122.04443 5291 ft 261 kts 298°
2026-05-05 13:43 37.48723 -122.06435 5061 ft 259 kts 298°
2026-05-05 13:43 37.49603 -122.08418 4619 ft 257 kts 299°
2026-05-05 13:43 37.50448 -122.10328 4206 ft 242 kts 298°
2026-05-05 13:43 37.51211 -122.12123 4073 ft 225 kts 297°
2026-05-05 13:44 37.51930 -122.13824 3927 ft 216 kts 298°
2026-05-05 13:44 37.52633 -122.15471 3697 ft 212 kts 297°
2026-05-05 13:44 37.53316 -122.17101 3432 ft 209 kts 297°
2026-05-05 13:44 37.53992 -122.18718 3141 ft 208 kts 297°
2026-05-05 13:45 37.54667 -122.20326 2846 ft 207 kts 297°
2026-05-05 13:45 37.55341 -122.21928 2561 ft 206 kts 297°
2026-05-05 13:45 37.56000 -122.23502 2272 ft 198 kts 297°
2026-05-05 13:45 37.56620 -122.24976 2031 ft 182 kts 296°
2026-05-05 13:46 37.57187 -122.26322 1783 ft 167 kts 296°
2026-05-05 13:46 37.57710 -122.27574 1537 ft 156 kts 296°
2026-05-05 13:46 37.58203 -122.28749 1344 ft 146 kts 296°
2026-05-05 13:46 37.58662 -122.29840 1122 ft 136 kts 296°
2026-05-05 13:47 37.59090 -122.30864 955 ft 133 kts 296°
2026-05-05 13:47 37.59521 -122.31892 760 ft 133 kts 296°
2026-05-05 13:47 37.59951 -122.32920 586 ft 132 kts 296°
2026-05-05 13:47 37.60381 -122.33946 403 ft 133 kts 297°
2026-05-05 13:48 37.60806 -122.34961 232 ft 129 kts 296°
2026-05-05 13:48 37.61217 -122.35946 63 ft 125 kts 297°
2026-05-05 13:48 37.61607 -122.36887 29 ft 106 kts 296°
2026-05-05 13:48 37.61892 -122.37558 28 ft 71 kts 297°
2026-05-05 13:49 37.62068 -122.37975 28 ft 36 kts 297°
2026-05-05 13:49 37.62140 -122.38148 28 ft 15 kts 297°
2026-05-05 13:49 37.62128 -122.38234 28 ft 11 kts 226°
2026-05-05 13:49 37.62061 -122.38248 28 ft 11 kts 144°
2026-05-05 13:50 37.62019 -122.38157 28 ft 14 kts 116°
2026-05-05 13:50 37.61972 -122.38038 28 ft 17 kts 117°
2026-05-05 13:50 37.61892 -122.37926 28 ft 18 kts 147°
2026-05-05 13:50 37.61768 -122.37867 28 ft 21 kts 175°
2026-05-05 13:51 37.61629 -122.37896 28 ft 20 kts 207°
2026-05-05 13:51 37.61523 -122.37966 28 ft 15 kts 208°
2026-05-05 13:51 37.61419 -122.38033 28 ft 18 kts 207°
2026-05-05 13:51 37.61327 -122.38095 28 ft 16 kts 209°
2026-05-05 13:52 37.61221 -122.38167 28 ft 19 kts 208°
2026-05-05 13:52 37.61113 -122.38238 28 ft 16 kts 207°
2026-05-05 13:52 37.61012 -122.38304 28 ft 16 kts 207°
2026-05-05 13:52 37.60920 -122.38365 28 ft 14 kts 207°
2026-05-05 13:53 37.60840 -122.38417 28 ft 11 kts 207°
2026-05-05 13:53 37.60797 -122.38447 28 ft 6 kts 215°
2026-05-05 13:53 37.60777 -122.38502 28 ft 8 kts 272°
2026-05-05 13:53 37.60803 -122.38574 28 ft 11 kts 297°
2026-05-05 13:54 37.60842 -122.38668 28 ft 14 kts 297°
2026-05-05 13:54 37.60891 -122.38782 28 ft 16 kts 298°
2026-05-05 13:54 37.60948 -122.38900 28 ft 14 kts 316°
2026-05-05 13:54 37.61044 -122.38895 28 ft 16 kts 23°
2026-05-05 13:55 37.61132 -122.38840 28 ft 13 kts 27°
2026-05-05 13:55 37.61197 -122.38797 28 ft 10 kts 27°
2026-05-05 13:55 37.61223 -122.38779 28 ft 0 kts 27°
2026-05-05 13:55 37.61224 -122.38779 28 ft 1 kts 27°
2026-05-05 13:56 37.61250 -122.38762 28 ft 6 kts 27°
2026-05-05 13:56 37.61292 -122.38734 28 ft 7 kts 27°
2026-05-05 13:56 37.61322 -122.38750 28 ft 5 kts 302°
2026-05-05 13:56 37.61338 -122.38785 28 ft 4 kts 298°
2026-05-05 13:57 37.61345 -122.38803 28 ft 1 kts 298°
2026-05-05 13:57 37.61349 -122.38811 28 ft 1 kts 297°
2026-05-05 13:57 37.61351 -122.38816 27 ft 0 kts 297°